| time (UTC) | temp F | wind direction | speed knots | gust knots | rain 1hr in | rain 24hr in | rain mn in | humidity % | barometer mb |
| 20260504220440 | 78 | 180 | 5.2 | 3.5 | 0.00 | 0.00 | 0.18 | 43 | 1003.7 |
| 20260504214942 | 79 | 204 | 7.0 | 7.8 | 0.00 | 0.00 | 0.18 | 43 | 1003.7 |
| 20260504213441 | 78 | 204 | 1.7 | 2.6 | 0.00 | 0.00 | 0.18 | 48 | 1003.8 |
| 20260504211942 | 77 | 235 | 7.8 | 2.6 | 0.00 | 0.00 | 0.18 | 48 | 1003.9 |
| 20260504210441 | 77 | 146 | 6.1 | 4.3 | 0.00 | 0.00 | 0.18 | 51 | 1004.0 |
| 20260504204943 | 76 | 174 | 2.6 | 2.6 | 0.00 | 0.00 | 0.18 | 57 | 1004.4 |
| 20260504203442 | 74 | 214 | 5.2 | 4.3 | 0.01 | 0.00 | 0.18 | 58 | 1004.7 |
| 20260504201943 | 74 | 38 | 0.9 | 1.7 | 0.01 | 0.00 | 0.18 | 59 | 1004.8 |
| 20260504200442 | 73 | 180 | 3.5 | 7.0 | 0.01 | 0.00 | 0.18 | 65 | 1004.8 |
| 20260504194944 | 71 | 259 | 1.7 | 2.6 | 0.01 | 0.00 | 0.18 | 73 | 1004.8 |
| 20260504193443 | 68 | 231 | 4.3 | 3.5 | 0.06 | 0.00 | 0.18 | 75 | 1005.2 |
| 20260504191944 | 66 | 218 | 3.5 | 7.8 | 0.06 | 0.00 | 0.18 | 80 | 1005.1 |
| 20260504190444 | 63 | 187 | 2.6 | 9.6 | 0.06 | 0.00 | 0.18 | 86 | 1004.8 |
| 20260504184945 | 63 | 163 | 0.9 | 2.6 | 0.06 | 0.00 | 0.17 | 86 | 1006.5 |
| 20260504183444 | 63 | 170 | 1.7 | 3.5 | 0.11 | 0.00 | 0.17 | 90 | 1006.6 |
| 20260504181946 | 61 | 267 | 3.5 | 2.6 | 0.11 | 0.00 | 0.17 | 89 | 1006.3 |
| 20260504180445 | 61 | 211 | 0.0 | 0.0 | 0.11 | 0.00 | 0.17 | 88 | 1006.2 |
| 20260504174947 | 62 | 198 | 5.2 | 4.3 | 0.11 | 0.00 | 0.16 | 87 | 1006.2 |
| 20260504173447 | 63 | 142 | 4.3 | 4.3 | 0.00 | 0.00 | 0.02 | 80 | 1007.0 |
| 20260504171952 | 63 | 156 | 2.6 | 0.0 | 0.00 | 0.00 | 0.01 | 75 | 1007.1 |
| 20260504171947 | 63 | 156 | 2.6 | 0.0 | 0.00 | 0.00 | 0.01 | 75 | 1007.1 |
| 20260504170446 | 63 | 231 | 2.6 | 0.0 | 0.00 | 0.00 | 0.01 | 74 | 1007.3 |
| 20260504150449 | 66 | 203 | 3.5 | 3.5 | 0.00 | 0.00 | 0.00 | 49 | 1008.8 |
| 20260504140451 | 69 | 253 | 3.5 | 7.0 | 0.00 | 0.00 | 0.00 | 46 | 1009.0 |
| 20260504130453 | 64 | 219 | 0.0 | 0.0 | 0.00 | 0.00 | 0.00 | 57 | 1009.7 |
| 20260504110455 | 60 | 173 | 0.0 | 0.0 | 0.00 | 0.00 | 0.00 | 64 | 1009.9 |
| 20260504100457 | 60 | 226 | 3.5 | 0.0 | 0.00 | 0.00 | 0.00 | 67 | 1010.2 |
| 20260504081958 | 61 | 243 | 0.0 | 0.0 | 0.00 | 0.00 | 0.00 | 72 | 1010.1 |
| 20260504080458 | 62 | 243 | 0.0 | 0.0 | 0.00 | 0.00 | 0.00 | 69 | 1009.9 |
| 20260504050503 | 66 | 229 | 6.1 | 6.1 | 0.00 | 0.00 | 0.00 | 46 | 1009.7 |
| 20260504045005 | 67 | 160 | 2.6 | 6.1 | 0.00 | 0.00 | 0.00 | 45 | 1009.3 |
| 20260504043504 | 67 | 215 | 6.1 | 5.2 | 0.00 | 0.00 | 0.00 | 44 | 1009.5 |
| 20260504042006 | 68 | 236 | 6.1 | 0.0 | 0.00 | 0.00 | 0.00 | 43 | 1010.0 |
| 20260504040505 | 68 | 249 | 6.1 | 5.2 | 0.00 | 0.00 | 0.00 | 45 | 1010.3 |
| 20260504035008 | 68 | 240 | 4.3 | 4.3 | 0.00 | 0.00 | 0.00 | 43 | 1009.8 |
| 20260504033506 | 69 | 249 | 1.7 | 0.0 | 0.00 | 0.00 | 0.00 | 43 | 1010.5 |
| 20260504032008 | 69 | 194 | 0.0 | 0.0 | 0.00 | 0.00 | 0.00 | 42 | 1010.6 |
| 20260504030507 | 69 | 179 | 0.9 | 0.0 | 0.00 | 0.00 | 0.00 | 42 | 1010.7 |
| 20260504025009 | 70 | 172 | 0.0 | 7.0 | 0.00 | 0.00 | 0.00 | 41 | 1010.5 |
| 20260504023508 | 70 | 248 | 0.0 | 0.0 | 0.00 | 0.00 | 0.00 | 42 | 1010.5 |
| 20260504022010 | 71 | 248 | 0.0 | 0.0 | 0.00 | 0.00 | 0.00 | 39 | 1010.6 |
| 20260504020517 | 71 | 263 | 0.0 | 0.0 | 0.00 | 0.30 | 0.00 | 37 | 1010.4 |
| 20260504020509 | 71 | 263 | 0.0 | 0.0 | 0.00 | 0.00 | 0.00 | 37 | 1010.4 |
| 20260504015010 | 72 | 246 | 2.6 | 5.2 | 0.00 | 0.00 | 0.00 | 36 | 1010.1 |
| 20260504013510 | 72 | 176 | 1.7 | 2.6 | 0.00 | 0.00 | 0.00 | 35 | 1010.0 |
| 20260504012011 | 73 | 239 | 2.6 | 2.6 | 0.00 | 0.00 | 0.00 | 34 | 1009.8 |
| 20260504010511 | 73 | 203 | 3.5 | 3.5 | 0.00 | 0.00 | 0.00 | 34 | 1009.7 |
| 20260504005013 | 73 | 212 | 0.0 | 0.0 | 0.00 | 0.00 | 0.00 | 33 | 1009.8 |
| 20260504003512 | 74 | 174 | 2.6 | 0.0 | 0.00 | 0.00 | 0.00 | 32 | 1009.8 |
| 20260504002013 | 74 | 226 | 4.3 | 0.0 | 0.00 | 0.00 | 0.00 | 31 | 1009.9 |
| 20260504000512 | 74 | 233 | 6.1 | 2.6 | 0.00 | 0.00 | 0.00 | 29 | 1009.9 |
| 20260503235014 | 75 | 243 | 5.2 | 4.3 | 0.00 | 0.00 | 0.00 | 28 | 1010.0 |
| 20260503233513 | 75 | 226 | 7.8 | 7.8 | 0.00 | 0.00 | 0.00 | 28 | 1010.2 |
| 20260503232015 | 76 | 236 | 6.1 | 13.9 | 0.00 | 0.00 | 0.00 | 26 | 1010.3 |
| 20260503230514 | 77 | 238 | 5.2 | 4.3 | 0.00 | 0.00 | 0.00 | 26 | 1010.5 |
| 20260503225016 | 77 | 226 | 12.2 | 8.7 | 0.00 | 0.00 | 0.00 | 25 | 1010.6 |
| 20260503223515 | 77 | 253 | 7.8 | 6.1 | 0.00 | 0.00 | 0.00 | 24 | 1010.8 |
| 20260503222017 | 77 | 218 | 12.2 | 6.1 | 0.00 | 0.00 | 0.00 | 22 | 1010.8 |